GW4603 Weather Reports


time (UTC)temp
F
wind
direction
speed
knots
gust
knots
rain 1hr
in
rain 24hr
in
rain mn
in
humidity
%
barometer
mb
20260504081702 40 246 0.0 0.0 0.00 0.00 0.00 86 1016.3
20260504081158 40 28 0.0 0.0 0.00 0.00 0.00 85 1016.2
20260504080655 40 266 0.0 0.0 0.00 0.00 0.00 85 1016.4
20260504080152 41 120 0.9 0.9 0.00 0.00 0.00 81 1016.4
20260504070119 41 276 0.0 0.0 0.00 0.00 0.00 83 1016.5
20260504050508 41 314 0.0 0.0 0.00 0.00 0.00 79 1017.2
20260504050005 41 315 0.0 0.0 0.00 0.00 0.00 78 1017.1
20260504045501 42 315 0.0 0.0 0.00 0.00 0.00 78 1017.2
20260504044957 41 314 0.0 0.0 0.00 0.00 0.00 78 1016.7
20260504044454 42 314 0.0 0.0 0.00 0.00 0.00 77 1017.0
20260504043951 42 314 0.0 0.0 0.00 0.00 0.00 77 1017.0
20260504043448 42 314 0.0 0.0 0.00 0.00 0.00 76 1016.8
20260504042946 41 314 0.0 0.0 0.00 0.00 0.00 77 1017.1
20260504042442 41 315 0.0 0.0 0.00 0.00 0.00 77 1016.8
20260504041939 41 315 0.0 0.0 0.00 0.00 0.00 77 1017.0
20260504041435 41 315 0.0 0.0 0.00 0.00 0.00 76 1017.0
20260504040931 41 314 0.0 0.0 0.00 0.00 0.00 76 1017.1
20260504040429 41 314 0.0 0.0 0.00 0.00 0.00 77 1017.0
20260504035925 41 314 0.0 0.0 0.00 0.00 0.00 76 1017.0
20260504035423 41 314 0.0 0.0 0.00 0.00 0.00 76 1016.8
20260504034919 41 315 0.0 0.0 0.00 0.00 0.00 75 1017.0
20260504034417 41 314 0.0 0.0 0.00 0.00 0.00 74 1017.0
20260504033913 41 314 0.0 0.0 0.00 0.00 0.00 73 1017.0
20260504033412 42 315 0.0 0.0 0.00 0.00 0.00 73 1016.7
20260504032908 42 315 0.0 0.0 0.00 0.00 0.00 72 1016.7
20260504032405 42 315 0.0 0.0 0.00 0.00 0.00 72 1016.8
20260504031901 42 315 0.0 0.0 0.00 0.00 0.00 72 1017.0
20260504031359 42 315 0.0 0.0 0.00 0.00 0.00 71 1016.6
20260504030855 42 315 0.0 0.0 0.00 0.00 0.00 71 1016.5
20260504030353 42 315 0.0 0.0 0.00 0.00 0.00 74 1016.7
20260504025848 41 315 0.0 0.0 0.00 0.00 0.00 71 1016.6
20260504025345 42 315 0.0 0.0 0.00 0.00 0.00 71 1016.7
20260504024842 41 315 0.0 0.0 0.00 0.00 0.00 70 1016.7
20260504024338 42 315 0.0 0.0 0.00 0.00 0.00 71 1016.6
20260504023836 41 315 0.0 0.0 0.00 0.00 0.00 71 1016.7
20260504023333 41 315 0.0 0.0 0.00 0.00 0.00 71 1016.7
20260504022828 41 315 0.0 0.0 0.00 0.00 0.00 69 1016.7
20260504022325 41 315 0.0 0.0 0.00 0.00 0.00 71 1016.7
20260504021821 41 315 0.0 0.0 0.00 0.00 0.00 71 1016.8
20260504021319 41 315 0.0 0.0 0.00 0.00 0.00 69 1016.6
20260504020816 41 315 0.0 0.0 0.00 0.00 0.00 73 1016.6
20260504020313 41 315 0.0 0.0 0.00 0.00 0.00 72 1016.6
20260504015809 41 315 0.0 0.0 0.00 0.00 0.00 72 1016.7
20260504015305 41 315 0.0 0.0 0.00 0.00 0.00 71 1016.6
20260504014801 41 315 0.0 0.0 0.00 0.00 0.00 71 1016.7
20260504014257 42 315 0.0 0.0 0.00 0.00 0.00 71 1016.6
20260504013755 42 315 0.0 0.0 0.00 0.00 0.00 73 1016.5
20260504013253 42 315 0.0 0.0 0.00 0.00 0.00 68 1016.4
20260504012749 42 315 0.0 0.0 0.00 0.00 0.00 68 1016.3
20260504012247 43 315 0.0 0.0 0.00 0.00 0.00 70 1016.2
20260504011744 43 315 0.0 0.0 0.00 0.00 0.00 66 1016.3
20260504011240 43 315 0.0 0.0 0.00 0.00 0.00 65 1016.5
20260504010736 44 315 0.0 0.0 0.00 0.00 0.00 67 1016.4
20260504010232 44 315 0.0 0.0 0.00 0.00 0.00 60 1016.2
20260504005729 44 315 0.0 0.0 0.00 0.00 0.00 60 1016.1
20260504005226 45 315 0.0 0.0 0.00 0.00 0.00 63 1016.0
20260504004724 45 315 0.0 0.0 0.00 0.00 0.00 65 1015.9
20260504004220 45 315 0.0 0.0 0.00 0.00 0.00 60 1015.9
20260504003717 46 315 0.0 0.0 0.00 0.00 0.00 63 1016.2
20260504003214 46 315 0.0 0.0 0.00 0.00 0.00 62 1016.0
20260504002711 47 315 0.0 0.0 0.00 0.00 0.00 57 1015.9
20260504002208 47 315 0.0 0.0 0.00 0.00 0.00 57 1016.0
20260504001706 48 315 0.0 0.0 0.00 0.00 0.00 56 1015.8
20260504001202 48 315 0.0 0.0 0.00 0.00 0.00 51 1016.0
20260504000659 49 315 0.0 0.0 0.00 0.00 0.00 53 1016.1
20260504000156 50 315 0.0 0.0 0.00 0.00 0.00 51 1015.9
20260503235654 51 310 0.0 0.0 0.00 0.00 0.00 48 1015.9
20260503235151 52 268 0.0 0.0 0.00 0.00 0.00 46 1015.9
20260503234649 53 273 0.0 0.0 0.00 0.00 0.00 43 1016.0
20260503234147 54 6 0.0 0.0 0.00 0.00 0.00 40 1016.0
20260503233643 55 309 0.0 2.6 0.00 0.00 0.00 36 1016.0
20260503233139 55 307 1.7 3.5 0.00 0.00 0.00 36 1016.1
20260503232636 55 310 1.7 1.7 0.00 0.00 0.00 35 1016.2
20260503232133 55 322 0.0 0.9 0.00 0.00 0.00 36 1016.1
20260503231631 55 274 0.0 1.7 0.00 0.00 0.00 35 1016.0
20260503231127 55 334 0.0 3.5 0.00 0.00 0.00 33 1016.1
20260503230625 55 255 0.0 2.6 0.00 0.00 0.00 34 1016.0
20260503230122 55 242 0.0 2.6 0.00 0.00 0.00 35 1016.1
20260503225619 55 320 0.9 3.5 0.00 0.00 0.00 33 1016.4
20260503225118 55 299 4.3 7.0 0.00 0.00 0.00 32 1016.4
20260503224616 55 177 2.6 6.1 0.00 0.00 0.00 32 1016.4
20260503224114 55 317 0.0 1.7 0.00 0.00 0.00 32 1016.4
20260503223612 55 319 4.3 6.1 0.00 0.00 0.00 32 1016.7
20260503223107 55 272 2.6 5.2 0.00 0.00 0.00 34 1016.3
20260503222606 55 176 1.7 6.1 0.00 0.00 0.00 32 1016.4
20260503222103 56 267 1.7 3.5 0.00 0.00 0.00 33 1016.4
20260503221601 56 221 2.6 3.5 0.00 0.00 0.00 38 1016.5
20260503221059 56 301 0.9 5.2 0.00 0.00 0.00 33 1016.3
20260503220554 57 315 4.3 6.1 0.00 0.00 0.00 33 1016.1
20260503220052 57 326 1.7 3.5 0.00 0.00 0.00 33 1016.2
20260503215549 57 324 0.0 7.0 0.00 0.00 0.00 32 1016.3
20260503215046 58 108 0.0 1.7 0.00 0.00 0.00 34 1016.1
20260503214544 57 338 2.6 5.2 0.00 0.00 0.00 31 1016.2
20260503214040 56 333 3.5 5.2 0.00 0.00 0.00 31 1016.2
20260503213539 56 251 4.3 8.7 0.00 0.00 0.00 33 1016.3
20260503213035 57 294 5.2 6.1 0.00 0.00 0.00 31 1016.4
20260503212532 57 308 4.3 5.2 0.00 0.00 0.00 31 1016.5
20260503212030 57 351 0.9 2.6 0.00 0.00 0.00 32 1016.5
20260503211526 57 313 1.7 7.0 0.00 0.00 0.00 31 1016.6
20260503211022 58 287 0.9 3.5 0.00 0.00 0.00 30 1016.5
20260503210519 57 351 0.0 2.6 0.00 0.00 0.00 33 1016.4
20260503210015 57 313 5.2 6.1 0.00 0.00 0.00 30 1016.6
20260503205512 57 328 0.9 3.5 0.00 0.00 0.00 35 1016.7
20260503205008 57 248 1.7 6.1 0.00 0.00 0.00 36 1016.7
20260503204505 58 16 0.0 2.6 0.00 0.00 0.00 32 1016.4
20260503204001 57 302 5.2 6.1 0.00 0.00 0.00 32 1016.5
20260503203459 56 250 1.7 7.0 0.00 0.00 0.00 37 1016.6
20260503202955 56 119 4.3 5.2 0.00 0.00 0.00 30 1017.1
20260503202454 56 147 2.6 7.8 0.00 0.00 0.00 31 1016.8
20260503201952 57 298 3.5 3.5 0.00 0.00 0.00 31 1017.0
20260503201449 57 302 1.7 6.1 0.00 0.00 0.00 35 1017.0
20260503200947 57 192 1.7 7.0 0.00 0.00 0.00 32 1017.1
20260503200443 56 318 0.9 3.5 0.00 0.00 0.00 35 1017.1
20260503195940 57 153 4.3 5.2 0.00 0.00 0.00 32 1017.3
20260503195437 57 110 0.9 6.1 0.00 0.00 0.00 32 1017.4
20260503194933 57 316 1.7 5.2 0.00 0.00 0.00 35 1017.6
20260503194430 58 242 4.3 5.2 0.00 0.00 0.00 33 1017.7
20260503193926 56 297 3.5 5.2 0.00 0.00 0.00 35 1017.6
20260503193421 56 174 2.6 7.8 0.00 0.00 0.00 32 1017.8
20260503192917 55 301 0.9 3.5 0.00 0.00 0.00 36 1017.8
20260503192414 54 155 4.3 11.3 0.00 0.00 0.00 34 1017.7
20260503191909 55 326 1.7 7.8 0.00 0.00 0.00 35 1017.8
20260503191408 55 44 4.3 7.0 0.00 0.00 0.00 34 1018.0
20260503190903 54 327 0.9 3.5 0.00 0.00 0.00 34 1018.1
20260503190401 55 291 7.8 7.8 0.00 0.00 0.00 35 1018.2
20260503185857 56 301 7.8 8.7 0.00 0.00 0.00 34 1018.1
20260503185354 55 214 1.7 2.6 0.00 0.00 0.00 34 1018.4
20260503184854 55 358 1.7 7.0 0.00 0.00 0.00 33 1018.1
20260503184350 55 45 2.6 5.2 0.00 0.00 0.00 35 1018.5
20260503183845 55 304 8.7 9.6 0.00 0.00 0.00 35 1018.6
20260503183343 55 319 1.7 3.5 0.00 0.00 0.00 34 1018.5
20260503182840 56 39 3.5 5.2 0.00 0.00 0.00 38 1018.5
20260503182340 55 70 0.9 6.1 0.00 0.00 0.00 36 1018.7
20260503181836 54 225 1.7 2.6 0.00 0.00 0.00 46 1018.5
20260503181333 53 143 2.6 2.6 0.00 0.00 0.00 35 1018.5
20260503180829 53 304 7.8 9.6 0.00 0.00 0.00 36 1018.9
20260503180328 52 266 1.7 7.8 0.00 0.00 0.00 37 1018.7
20260503175824 52 144 4.3 5.2 0.00 0.00 0.00 36 1018.7
20260503175322 53 316 1.7 5.2 0.00 0.00 0.00 38 1018.7
20260503174817 54 9 1.7 6.1 0.00 0.00 0.00 37 1018.9
20260503174316 51 236 2.6 3.5 0.00 0.00 0.00 43 1019.0
20260503173811 53 318 0.9 7.8 0.00 0.00 0.00 36 1019.2
20260503173307 53 335 0.0 2.6 0.00 0.00 0.00 38 1019.0
20260503172804 52 327 3.5 5.2 0.00 0.00 0.00 37 1019.3
20260503172301 51 303 7.0 7.0 0.00 0.00 0.00 36 1019.3
20260503171757 51 293 2.6 5.2 0.00 0.00 0.00 37 1019.3
20260503171254 51 263 3.5 5.2 0.00 0.00 0.00 38 1019.4
20260503170751 50 174 1.7 7.0 0.00 0.00 0.00 39 1019.7
20260503170248 51 317 4.3 5.2 0.00 0.00 0.00 39 1019.5
20260503160210 47 288 7.0 8.7 0.00 0.00 0.00 40 1020.2
20260503150641 46 308 1.7 3.5 0.00 0.00 0.00 40 1020.4
20260503150136 48 71 4.3 5.2 0.00 0.00 0.00 39 1020.1
20260503131030 41 285 2.6 3.5 0.00 0.00 0.00 56 1020.4
20260503130527 41 16 0.9 1.7 0.00 0.00 0.00 61 1020.3
20260503110418 27 10 0.0 0.0 0.00 0.00 0.00 97 1018.7